| time (UTC) | temp F | wind direction | speed MPH | gust MPH | rain 1hr in | rain 24hr in | rain mn in | humidity % | barometer mb |
| 20260507214550 | 80 | 187 | 1.0 | 5.0 | 0.00 | 0.00 | 0.00 | 21 | 1007.1 |
| 20260507213035 | 82 | 187 | 0.0 | 10.0 | 0.00 | 0.00 | 0.00 | 22 | 1007.3 |
| 20260507211534 | 81 | 189 | 2.0 | 9.0 | 0.00 | 0.00 | 0.00 | 20 | 1007.5 |
| 20260507210047 | 81 | 189 | 0.0 | 5.0 | 0.00 | 0.00 | 0.00 | 22 | 1007.6 |
| 20260507204529 | 80 | 189 | 1.0 | 10.0 | 0.00 | 0.00 | 0.00 | 20 | 1007.8 |
| 20260507203027 | 79 | 189 | 1.0 | 10.0 | 0.00 | 0.00 | 0.00 | 20 | 1007.9 |
| 20260507201525 | 78 | 189 | 1.0 | 14.0 | 0.00 | 0.00 | 0.00 | 20 | 1007.8 |
| 20260507200027 | 78 | 203 | 2.0 | 9.0 | 0.00 | 0.00 | 0.00 | 19 | 1007.9 |
| 20260507194521 | 78 | 203 | 1.0 | 8.0 | 0.00 | 0.00 | 0.00 | 21 | 1008.1 |
| 20260507193018 | 78 | 203 | 0.0 | 4.0 | 0.00 | 0.00 | 0.00 | 23 | 1008.1 |
| 20260507191515 | 78 | 203 | 0.0 | 6.0 | 0.00 | 0.00 | 0.00 | 22 | 1008.3 |
| 20260507190011 | 77 | 203 | 0.0 | 4.0 | 0.00 | 0.00 | 0.00 | 26 | 1008.6 |
| 20260507184515 | 76 | 203 | 1.0 | 5.0 | 0.00 | 0.00 | 0.00 | 26 | 1008.9 |
| 20260507183004 | 74 | 212 | 1.0 | 11.0 | 0.00 | 0.00 | 0.00 | 27 | 1009.0 |
| 20260507181600 | 74 | 229 | 2.0 | 10.0 | 0.00 | 0.00 | 0.00 | 25 | 1009.1 |
| 20260507174553 | 73 | 256 | 1.0 | 7.0 | 0.00 | 0.00 | 0.00 | 27 | 1009.2 |
| 20260507173048 | 71 | 211 | 0.0 | 7.0 | 0.00 | 0.00 | 0.00 | 41 | 1009.3 |
| 20260507171549 | 70 | 211 | 1.0 | 5.0 | 0.00 | 0.00 | 0.00 | 40 | 1009.4 |
| 20260507170040 | 68 | 211 | 2.0 | 7.0 | 0.00 | 0.00 | 0.00 | 45 | 1009.6 |
| 20260507164535 | 67 | 211 | 3.0 | 7.0 | 0.00 | 0.00 | 0.00 | 45 | 1009.6 |
| 20260507163031 | 67 | 211 | 0.0 | 4.0 | 0.00 | 0.00 | 0.00 | 46 | 1009.7 |
| 20260507161529 | 65 | 211 | 1.0 | 4.0 | 0.00 | 0.00 | 0.00 | 52 | 1009.9 |
| 20260507160023 | 64 | 211 | 0.0 | 3.0 | 0.00 | 0.00 | 0.00 | 53 | 1010.0 |
| 20260507154528 | 62 | 211 | 0.0 | 4.0 | 0.00 | 0.00 | 0.00 | 58 | 1010.1 |
| 20260507153028 | 61 | 211 | 1.0 | 4.0 | 0.00 | 0.00 | 0.00 | 60 | 1010.1 |
| 20260507151509 | 59 | 211 | 0.0 | 4.0 | 0.00 | 0.00 | 0.00 | 60 | 1010.1 |
| 20260507150006 | 57 | 211 | 0.0 | 2.0 | 0.00 | 0.00 | 0.00 | 63 | 1010.1 |
| 20260507144506 | 56 | 211 | 0.0 | 1.0 | 0.00 | 0.00 | 0.00 | 65 | 1010.1 |
| 20260507143004 | 54 | 211 | 0.0 | 0.0 | 0.00 | 0.00 | 0.00 | 70 | 1010.2 |
| 20260507141502 | 52 | 211 | 0.0 | 1.0 | 0.00 | 0.00 | 0.00 | 73 | 1010.1 |
| 20260507140004 | 51 | 211 | 0.0 | 0.0 | 0.00 | 0.00 | 0.00 | 75 | 1010.1 |
| 20260507134600 | 51 | 211 | 0.0 | 0.0 | 0.00 | 0.00 | 0.00 | 76 | 1010.0 |
| 20260507133106 | 50 | 211 | 0.0 | 0.0 | 0.00 | 0.00 | 0.00 | 75 | 1009.8 |
| 20260507131611 | 50 | 211 | 0.0 | 0.0 | 0.00 | 0.00 | 0.00 | 74 | 1009.8 |
| 20260507130053 | 50 | 211 | 0.0 | 0.0 | 0.00 | 0.00 | 0.00 | 73 | 1009.8 |
| 20260507124550 | 51 | 211 | 0.0 | 0.0 | 0.00 | 0.00 | 0.00 | 71 | 1009.8 |
| 20260507123048 | 51 | 211 | 0.0 | 1.0 | 0.00 | 0.00 | 0.00 | 70 | 1009.8 |
| 20260507121547 | 52 | 211 | 0.0 | 4.0 | 0.00 | 0.00 | 0.00 | 70 | 1009.8 |
| 20260507120046 | 52 | 211 | 0.0 | 1.0 | 0.00 | 0.00 | 0.00 | 70 | 1009.8 |
| 20260507114547 | 52 | 211 | 0.0 | 0.0 | 0.00 | 0.00 | 0.00 | 69 | 1009.8 |
| 20260507113042 | 53 | 211 | 0.0 | 2.0 | 0.00 | 0.00 | 0.00 | 68 | 1009.8 |
| 20260507111542 | 53 | 211 | 0.0 | 3.0 | 0.00 | 0.00 | 0.00 | 69 | 1009.8 |
| 20260507110041 | 53 | 211 | 0.0 | 2.0 | 0.00 | 0.00 | 0.00 | 69 | 1009.9 |
| 20260507104542 | 53 | 211 | 0.0 | 0.0 | 0.00 | 0.00 | 0.00 | 70 | 1009.8 |
| 20260507103038 | 53 | 211 | 0.0 | 0.0 | 0.00 | 0.00 | 0.00 | 69 | 1009.8 |
| 20260507101537 | 53 | 211 | 0.0 | 0.0 | 0.00 | 0.00 | 0.00 | 68 | 1009.9 |
| 20260507100036 | 53 | 211 | 0.0 | 2.0 | 0.00 | 0.00 | 0.00 | 67 | 1010.0 |
| 20260507094535 | 54 | 211 | 0.0 | 1.0 | 0.00 | 0.00 | 0.00 | 67 | 1010.1 |
| 20260507093033 | 54 | 211 | 0.0 | 0.0 | 0.00 | 0.00 | 0.00 | 67 | 1010.1 |
| 20260507091534 | 54 | 211 | 0.0 | 0.0 | 0.00 | 0.00 | 0.00 | 64 | 1010.1 |
| 20260507090028 | 55 | 211 | 0.0 | 1.0 | 0.00 | 0.00 | 0.00 | 62 | 1010.2 |
| 20260507084526 | 55 | 211 | 0.0 | 2.0 | 0.00 | 0.00 | 0.00 | 61 | 1010.3 |
| 20260507083023 | 56 | 211 | 0.0 | 2.0 | 0.00 | 0.00 | 0.00 | 60 | 1010.3 |
| 20260507081522 | 56 | 211 | 0.0 | 0.0 | 0.00 | 0.00 | 0.00 | 59 | 1010.3 |
| 20260507080019 | 57 | 211 | 0.0 | 0.0 | 0.00 | 0.00 | 0.00 | 59 | 1010.2 |
| 20260507074518 | 57 | 211 | 0.0 | 0.0 | 0.00 | 0.00 | 0.00 | 57 | 1010.1 |
| 20260507073016 | 57 | 211 | 0.0 | 3.0 | 0.00 | 0.00 | 0.00 | 56 | 1010.0 |
| 20260507071539 | 57 | 211 | 0.0 | 0.0 | 0.00 | 0.00 | 0.00 | 55 | 1010.1 |
| 20260507070014 | 58 | 211 | 0.0 | 0.0 | 0.00 | 0.00 | 0.00 | 54 | 1010.1 |
| 20260507064514 | 58 | 211 | 0.0 | 0.0 | 0.00 | 0.00 | 0.00 | 53 | 1010.2 |
| 20260507063011 | 60 | 360 | 0.0 | 4.0 | 0.00 | 0.00 | 0.00 | 49 | 1010.1 |
| 20260507061511 | 61 | 360 | 3.0 | 5.0 | 0.00 | 0.00 | 0.00 | 48 | 1009.9 |
| 20260507060013 | 62 | 360 | 1.0 | 3.0 | 0.00 | 0.00 | 0.00 | 45 | 1009.8 |
| 20260507054511 | 64 | 360 | 0.0 | 0.0 | 0.00 | 0.00 | 0.00 | 43 | 1009.8 |
| 20260507053012 | 65 | 360 | 0.0 | 5.0 | 0.00 | 0.00 | 0.00 | 40 | 1009.7 |
| 20260507051512 | 66 | 360 | 0.0 | 5.0 | 0.00 | 0.00 | 0.00 | 41 | 1009.6 |
| 20260507050011 | 67 | 360 | 3.0 | 7.0 | 0.00 | 0.00 | 0.00 | 40 | 1009.6 |
| 20260507044508 | 67 | 360 | 4.0 | 7.0 | 0.00 | 0.00 | 0.00 | 37 | 1009.6 |
| 20260507043010 | 67 | 360 | 4.0 | 7.0 | 0.00 | 0.00 | 0.00 | 36 | 1009.6 |
| 20260507041506 | 66 | 360 | 1.0 | 5.0 | 0.00 | 0.00 | 0.00 | 34 | 1009.4 |
| 20260507040006 | 64 | 211 | 0.0 | 0.0 | 0.00 | 0.00 | 0.00 | 36 | 1009.3 |
| 20260507034512 | 65 | 211 | 0.0 | 0.0 | 0.00 | 0.00 | 0.00 | 35 | 1009.0 |
| 20260507033013 | 66 | 211 | 0.0 | 1.0 | 0.00 | 0.00 | 0.00 | 35 | 1009.0 |
| 20260507031504 | 67 | 211 | 0.0 | 0.0 | 0.00 | 0.00 | 0.00 | 34 | 1008.8 |
| 20260507030004 | 69 | 211 | 0.0 | 1.0 | 0.00 | 0.00 | 0.00 | 32 | 1008.7 |
| 20260507024503 | 70 | 211 | 0.0 | 2.0 | 0.00 | 0.00 | 0.00 | 29 | 1008.7 |
| 20260507023006 | 72 | 211 | 0.0 | 5.0 | 0.00 | 0.00 | 0.00 | 26 | 1008.6 |
| 20260507021501 | 72 | 211 | 1.0 | 6.0 | 0.00 | 0.00 | 0.00 | 23 | 1008.6 |
| 20260507020000 | 73 | 211 | 1.0 | 5.0 | 0.00 | 0.00 | 0.00 | 24 | 1008.6 |
| 20260507014621 | 73 | 211 | 1.0 | 6.0 | 0.00 | 0.00 | 0.00 | 24 | 1008.5 |
| 20260507013059 | 73 | 211 | 1.0 | 6.0 | 0.00 | 0.00 | 0.00 | 24 | 1008.5 |
| 20260507011608 | 74 | 211 | 0.0 | 3.0 | 0.00 | 0.00 | 0.00 | 23 | 1008.6 |
| 20260507010112 | 74 | 211 | 1.0 | 5.0 | 0.00 | 0.00 | 0.00 | 23 | 1008.6 |
| 20260507004614 | 74 | 211 | 2.0 | 5.0 | 0.00 | 0.00 | 0.00 | 21 | 1008.5 |
| 20260507003059 | 74 | 211 | 0.0 | 5.0 | 0.00 | 0.00 | 0.00 | 22 | 1008.5 |
| 20260507001558 | 75 | 211 | 0.0 | 8.0 | 0.00 | 0.00 | 0.00 | 22 | 1008.5 |
| 20260507000057 | 75 | 214 | 1.0 | 5.0 | 0.00 | 0.00 | 0.00 | 22 | 1008.5 |
| 20260506234556 | 76 | 214 | 3.0 | 8.0 | 0.00 | 0.00 | 0.00 | 21 | 1008.6 |
| 20260506233058 | 79 | 360 | 1.0 | 9.0 | 0.00 | 0.00 | 0.00 | 20 | 1008.6 |
| 20260506231558 | 78 | 221 | 1.0 | 6.0 | 0.00 | 0.00 | 0.00 | 21 | 1008.8 |
| 20260506230054 | 78 | 221 | 1.0 | 7.0 | 0.00 | 0.00 | 0.00 | 19 | 1008.9 |
| 20260506224554 | 78 | 221 | 0.0 | 7.0 | 0.00 | 0.00 | 0.00 | 19 | 1009.1 |
| 20260506223051 | 78 | 221 | 3.0 | 7.0 | 0.00 | 0.00 | 0.00 | 18 | 1009.4 |
| 20260506221550 | 76 | 221 | 3.0 | 7.0 | 0.00 | 0.00 | 0.00 | 21 | 1009.6 |
| 20260506220050 | 77 | 221 | 2.0 | 7.0 | 0.00 | 0.00 | 0.00 | 18 | 1010.1 |